EHI
31 27 24 22 19 18 20 22 22 19 18 15 10 7 5 3 3 1 0 0 0 0 0 0 0 0 0 0 0 0 0 0 0 0 0 0 0 0 0 0 0 0 0
31 28 24 22 21 20 19 20 19 16 13 11 8 4 3 2 1 0 0 0 0 0 0 0 0 0 0 0 0 0 0 0 0 0 0 0 0 0 0 0 0 0 0
30 27 24 22 20 19 18 17 14 11 10 9 7 4 2 1 0 0 0 0 0 0 0 0 0 0 0 0 0 0 0 0 0 0 0 0 0 0 0 0 0 0 0
29 26 22 19 17 16 16 15 13 10 10 10 11 8 4 1 1 0 0 0 0 0 0 0 0 0 0 0 0 0 0 0 0 0 0 0 0 0 0 0 0 0 0
26 23 19 17 15 15 16 15 13 11 11 11 12 9 4 1 1 1 0 0 0 0 0 0 0 0 0 0 0 0 0 0 0 0 0 0 0 0 0 0 0 0 0
22 19 16 14 13 14 15 14 12 10 11 12 11 7 2 1 1 1 0 0 0 0 0 0 0 0 0 0 0 0 0 0 0 0 0 0 0 0 0 0 0 0 0
20 18 15 14 13 14 14 14 11 11 12 12 10 6 3 2 1 0 0 0 0 0 0 0 0 0 0 0 0 0 0 0 0 0 0 0 0 0 0 0 0 0 0
20 19 17 16 15 16 16 16 14 12 13 12 9 6 3 3 2 1 0 0 0 0 0 0 0 0 0 0 0 0 0 0 0 0 0 0 0 0 0 0 0 0 0
19 19 19 18 17 17 18 18 17 15 13 12 8 5 3 3 3 1 0 0 0 0 0 0 0 0 0 0 0 0 0 0 0 0 0 0 0 0 0 0 0 0 0
16 19 21 21 19 17 18 19 19 17 14 10 6 4 3 3 3 2 0 0 0 0 0 0 0 0 0 0 0 0 0 0 0 0 0 0 0 0 0 0 0 0 0
12 16 21 22 20 19 19 20 20 18 14 8 4 3 2 2 2 1 0 0 0 0 0 0 0 0 0 0 0 0 0 0 0 0 0 0 0 0 0 0 0 0 0
7 11 17 20 21 23 24 23 23 21 16 10 4 1 1 1 1 0 0 0 0 0 0 0 0 0 0 0 0 0 0 0 0 0 0 0 0 0 0 0 0 0 0
6 8 13 18 22 26 30 30 28 25 20 15 9 4 2 2 1 0 0 0 0 0 0 0 0 0 0 0 0 0 0 0 0 0 0 0 0 0 0 0 0 0 0
7 8 11 16 22 27 33 35 33 30 26 22 17 11 7 6 4 1 0 0 0 0 0 0 0 0 0 0 0 0 0 0 0 0 0 0 0 0 0 0 0 0 0
9 8 9 14 21 27 33 36 35 34 33 30 24 17 12 8 5 1 1 2 1 0 0 0 0 0 0 0 0 0 0 0 0 0 0 0 0 0 0 0 0 0 0
11 9 8 12 19 26 33 36 37 36 36 34 28 21 14 8 4 1 1 3 2 1 1 1 0 0 0 0 0 0 0 0 0 0 0 0 0 0 0 0 0 0 0
12 9 8 10 16 22 29 34 37 36 35 31 27 21 14 8 4 2 3 3 3 2 1 1 0 0 0 0 0 0 0 0 0 0 0 0 0 0 0 0 0 0 0
9 7 7 8 10 15 21 28 31 32 30 25 21 19 15 10 7 6 6 6 6 5 3 2 1 0 0 0 0 0 0 0 0 0 0 0 0 0 0 0 0 0 0
5 5 4 4 5 9 14 19 22 23 21 17 15 17 16 14 12 10 8 8 7 6 5 4 2 1 0 0 0 0 0 0 0 0 0 0 0 0 0 0 0 0 0
3 4 3 2 3 5 9 12 12 13 14 12 13 14 14 14 14 12 9 6 5 4 4 4 2 1 0 0 0 0 0 0 0 0 0 0 0 0 0 0 0 0 0
2 3 2 1 1 2 5 6 7 8 10 10 9 10 10 11 12 11 7 5 3 2 2 2 1 0 0 0 0 0 0 0 0 0 0 0 0 0 0 0 0 0 0
2 1 1 0 0 1 2 4 5 5 6 6 6 6 7 8 8 7 6 4 3 2 1 0 0 0 0 0 0 0 0 0 0 0 0 0 0 0 0 0 0 0 0
2 1 0 0 0 0 1 2 3 3 2 3 3 4 4 4 3 3 4 3 2 1 1 0 0 0 0 0 0 0 0 0 0 0 0 0 0 0 0 0 0 0 0
1 0 0 0 0 0 1 1 1 1 1 1 1 2 2 2 2 2 2 2 1 0 0 0 0 0 0 0 0 0 0 0 0 0 0 0 0 0 0 0 0 0 0
0 0 0 0 0 0 0 0 0 0 0 0 0 1 1 1 1 1 1 1 0 0 0 0 0 0 0 0 0 0 0 0 0 0 0 0 0 0 0 0 0 0 0
0 0 0 0 0 0 0 0 0 0 0 0 0 0 0 1 1 0 0 0 0 0 0 0 0 0 0 0 0 0 0 0 0 0 0 0 0 0 0 0 0 0 0
Wind_Speed
7 7 8 9 9 10 10 10 10 9 8 6 6 6 5 4 4 4 5 5 5 5 5 4 3 3 3 2 2 2 3 2 1 3 3 4 3 2 1 1 1 1 1
7 8 8 9 9 10 11 10 10 10 8 6 5 4 5 4 3 3 4 5 5 5 5 5 3 3 3 3 3 3 2 2 2 3 3 3 4 4 3 1 1 1 1
13 11 9 9 10 11 12 11 10 9 8 7 6 5 4 3 2 3 3 4 5 5 5 5 4 4 3 3 2 3 3 2 2 1 3 3 2 2 3 3 1 1 1
11 11 11 10 10 10 10 10 10 10 9 8 8 9 7 5 5 4 3 4 4 5 5 5 5 4 3 3 2 3 3 3 1 2 1 2 3 3 1 3 3 2 0
12 13 12 12 10 9 9 9 9 9 8 8 9 8 6 4 4 4 5 4 3 5 5 5 5 4 3 4 3 3 3 2 2 1 1 2 2 2 3 0 3 3 2
10 10 9 8 8 8 8 9 10 9 9 9 8 8 8 7 7 6 5 4 2 3 4 5 5 5 4 4 3 3 4 3 3 2 2 2 2 1 2 2 1 2 3
10 9 9 9 9 10 10 10 11 9 9 9 8 8 9 9 9 7 7 5 3 3 4 5 4 4 4 4 4 3 3 3 3 2 2 2 2 2 3 3 1 1 2
10 12 12 11 10 11 11 11 11 10 10 9 8 8 8 6 6 7 6 6 5 5 6 6 6 5 5 5 4 3 3 3 3 2 2 1 1 2 2 3 3 1 2
12 12 12 11 11 12 12 12 12 10 10 10 9 8 8 7 7 7 6 5 5 5 6 6 6 5 5 5 5 3 3 3 3 2 2 1 1 1 1 2 3 4 1
12 12 12 12 11 11 10 10 10 10 9 9 9 9 8 7 7 6 7 6 6 6 7 7 6 6 5 5 4 3 3 3 3 2 2 2 1 0 1 1 2 3 4
11 12 11 12 11 10 10 10 10 9 9 9 8 8 7 7 7 7 7 7 6 7 8 8 7 7 6 5 5 4 4 4 3 3 3 3 2 1 1 1 1 2 3
9 10 11 11 10 11 11 12 11 10 10 9 8 8 7 7 7 7 7 7 8 8 8 8 7 7 7 6 6 6 5 5 5 5 4 4 3 3 2 2 2 2 3
7 7 9 10 11 11 11 12 12 12 10 9 9 8 8 8 8 7 7 7 7 7 7 7 8 7 7 7 7 6 6 6 6 6 6 6 5 5 4 4 3 3 3
7 7 7 8 10 11 11 12 12 11 10 9 9 9 9 9 9 7 7 7 7 8 8 7 7 7 6 7 6 6 6 6 6 6 6 7 7 7 6 5 5 4 3
5 6 6 7 7 8 9 10 11 10 10 10 10 10 9 8 7 7 7 6 6 7 7 7 7 6 6 6 7 6 7 6 6 6 6 7 9 10 8 6 5 5 4
4 4 4 5 6 8 9 10 10 10 10 10 10 9 8 7 7 7 7 7 7 6 7 8 8 7 7 9 11 8 6 6 6 6 6 6 8 10 12 12 11 9 7
4 3 2 2 3 4 6 8 9 8 9 9 8 8 7 7 7 7 6 7 7 6 6 7 7 8 8 10 11 12 7 6 7 7 6 6 6 7 6 8 11 11 13
5 5 4 5 3 2 3 5 6 7 7 7 6 6 6 7 5 5 6 6 5 6 6 7 7 7 8 11 11 11 8 6 7 7 7 6 6 5 5 5 6 7 8
7 6 5 5 4 4 3 5 6 6 5 5 5 6 6 6 6 6 6 5 5 5 6 5 6 6 7 9 11 10 5 5 7 6 5 6 6 7 7 4 6 7 8
8 7 6 7 7 6 5 8 7 6 4 3 3 3 3 5 6 6 5 4 5 5 4 4 5 6 5 7 10 10 4 4 4 4 4 7 7 7 6 5 5 8 8
9 9 9 9 7 6 8 9 8 6 3 4 5 4 4 3 3 3 2 2 2 2 2 3 3 3 4 4 6 8 5 5 4 3 3 3 5 7 8 7 7 11 9
10 9 10 10 8 8 9 10 8 5 5 6 6 5 4 3 2 3 2 2 2 2 1 1 1 1 1 2 3 5 7 5 4 4 3 3 5 7 8 7 9 12 9
8 7 9 10 8 8 9 9 6 5 6 7 6 4 4 3 2 2 2 2 2 2 1 1 1 0 0 0 1 2 3 4 3 3 4 5 7 8 6 9 11 8 5
8 7 9 10 8 8 8 7 6 6 7 6 5 4 4 4 4 2 2 2 2 2 1 1 1 0 0 1 1 1 0 1 2 3 4 6 7 7 7 7 6 4 4
7 7 7 8 7 6 7 6 6 6 7 6 5 4 4 4 4 3 2 2 1 2 3 2 2 2 1 2 2 0 0 0 1 1 1 1 2 3 3 4 4 4 4
6 7 7 7 6 6 6 6 5 6 6 6 5 4 3 3 3 2 3 4 3 3 2 1 1 0 0 0 1 2 2 2 0 1 1 2 3 3 4 4 4 4 4
Wind_Direction
169 163 165 167 164 166 166 162 160 160 155 149 145 143 148 148 144 146 144 138 134 129 122 117 113 108 108 112 102 87 61 36 47 63 27 5 12 30 51 85 102 111 139
162 171 176 180 174 173 171 169 165 164 163 159 154 149 143 147 150 145 146 147 140 138 137 128 130 124 112 95 80 82 82 28 51 104 85 33 5 357 8 14 90 88 86
168 172 179 181 176 174 170 170 169 165 164 155 136 126 109 104 112 143 155 161 150 143 138 140 135 132 125 122 109 99 102 78 15 83 129 129 190 315 337 351 16 56 74
170 173 177 182 185 183 173 166 167 165 167 158 153 153 156 160 175 171 167 166 156 151 147 144 139 135 132 133 132 112 110 108 60 10 45 132 151 137 357 334 340 349 37
175 176 178 180 184 181 170 164 161 165 167 166 161 159 157 160 154 152 155 162 163 160 154 148 141 138 138 140 129 115 109 114 122 100 66 63 63 92 128 265 323 338 321
179 176 173 166 174 174 168 165 167 172 171 169 167 166 164 161 155 162 165 169 167 168 164 155 149 149 147 148 146 136 127 126 122 114 108 121 120 132 129 153 257 298 300
175 172 169 171 174 173 172 172 174 177 178 175 174 174 173 168 171 172 174 170 169 180 185 165 160 159 163 162 152 142 145 145 136 140 136 138 158 161 147 134 161 307 307
180 178 178 180 181 181 179 177 180 182 182 181 182 181 175 171 175 178 174 179 183 188 182 174 173 172 169 165 156 150 164 153 153 154 150 145 169 158 154 152 142 76 338
184 181 181 182 183 185 186 183 182 183 186 186 182 183 181 177 178 179 177 180 187 188 179 175 176 176 172 166 158 161 178 169 173 175 171 167 205 164 158 153 149 146 157
183 180 181 185 186 185 184 181 182 187 188 187 189 190 189 185 179 174 179 182 184 180 170 174 175 176 174 169 162 167 179 175 190 188 177 192 212 192 158 156 152 149 156
185 181 182 184 183 178 177 180 183 186 185 184 188 187 186 186 177 177 182 182 181 176 176 178 177 178 178 174 171 185 182 188 207 208 195 211 204 202 215 185 160 162 153
183 181 178 177 179 180 182 185 186 188 190 188 185 187 181 180 180 185 187 179 177 180 179 176 179 185 186 182 182 195 195 195 207 215 208 220 210 213 224 213 211 206 190
178 180 177 179 182 184 186 187 189 192 190 185 183 186 186 186 189 191 185 179 178 179 178 176 183 189 189 189 192 195 200 203 209 210 208 214 205 216 220 216 216 220 215
166 173 181 184 186 187 187 187 190 190 187 185 185 189 193 194 194 190 184 182 179 179 182 182 186 189 192 195 198 196 201 209 214 215 214 214 208 213 216 219 219 217 219
155 168 182 185 186 187 189 190 191 190 186 184 190 197 198 195 190 188 188 186 185 189 185 185 192 191 193 200 199 201 207 211 219 223 222 222 219 217 214 215 213 211 219
147 159 179 185 188 189 189 189 191 190 183 184 193 194 189 189 194 197 192 189 194 196 190 193 196 200 210 209 205 202 212 213 218 226 230 235 233 233 230 231 223 209 212
115 111 123 162 165 175 180 182 185 178 175 183 187 186 187 194 199 201 197 197 197 196 201 205 202 207 217 216 213 211 208 214 220 223 226 239 239 231 233 241 242 236 232
90 81 74 67 58 86 140 161 157 160 171 178 182 180 182 190 191 191 198 202 199 201 207 210 208 211 222 218 220 218 214 219 223 221 219 224 240 237 228 238 249 250 246
83 78 74 74 68 61 89 121 126 141 158 174 178 179 184 185 182 189 195 198 200 208 209 207 208 215 225 216 217 215 212 224 232 231 226 222 229 242 235 232 250 262 265
71 68 70 69 64 55 70 84 89 101 117 140 146 153 168 173 180 190 193 194 195 205 201 213 215 216 223 219 217 210 207 225 239 242 241 236 238 251 244 230 241 257 264
74 71 68 62 52 53 69 73 71 74 84 91 92 95 105 132 154 159 160 156 162 161 179 213 224 216 218 218 214 203 198 216 228 237 243 246 252 256 256 247 239 249 258
72 70 71 63 51 55 70 69 57 44 55 67 69 70 76 80 88 104 107 113 124 131 150 168 245 258 227 202 205 205 208 206 209 234 245 250 264 271 270 259 255 262 268
75 70 76 70 54 50 65 69 53 50 59 62 59 56 56 58 62 87 114 125 130 145 163 173 188 237 308 22 100 160 199 207 214 243 259 276 282 287 282 269 269 271 259
79 74 74 71 58 47 53 58 52 56 64 62 55 55 57 48 46 56 86 107 116 123 122 141 163 194 350 9 17 32 314 258 253 275 288 292 286 278 273 279 278 259 245
84 80 80 77 66 55 52 47 49 58 60 57 53 48 50 56 53 48 56 83 97 139 144 166 170 167 196 247 226 168 338 287 262 286 308 304 299 295 289 285 279 273 270
92 87 82 78 68 59 50 39 43 57 60 53 46 43 42 45 46 45 29 33 57 58 82 111 123 111 179 273 318 342 348 344 356 88 301 287 283 281 284 288 290 284 276